PACCTY-2 Weather Reports


Display with metric or nautical units.
time (UTC)temp
F
wind
direction
speed
MPH
gust
MPH
rain 1hr
in
rain 24hr
in
rain mn
in
humidity
%
barometer
mb
20260901092252 60 189 6.0 9.0 0.00 0.00 0.00 91 1010.6
20260901091751 60 175 5.0 9.0 0.00 0.00 0.00 91 1010.6
20260901091250 60 193 4.0 9.0 0.00 0.00 0.00 91 1010.6
20260901090749 60 205 5.0 8.0 0.00 0.00 0.00 91 1010.6
20260901090248 60 179 6.0 8.0 0.00 0.00 0.00 91 1010.6
20260901085747 60 180 4.0 7.0 0.00 0.00 0.00 91 1010.6
20260901084745 60 182 5.0 9.0 0.00 0.00 0.00 91 1010.6
20260901084244 60 183 5.0 9.0 0.00 0.00 0.00 91 1010.6
20260901083744 60 201 6.0 9.0 0.00 0.00 0.00 91 1010.7
20260901082742 60 207 5.0 8.0 0.00 0.00 0.00 91 1010.7
20260901082243 60 215 6.0 8.0 0.00 0.00 0.00 91 1010.7
20260901081739 60 169 3.0 7.0 0.00 0.00 0.00 91 1010.7
20260901075735 60 177 2.0 4.0 0.00 0.00 0.00 91 1010.7
20260901074233 60 173 3.0 8.0 0.00 0.00 0.00 90 1010.7
20260901072729 61 176 5.0 7.0 0.00 0.00 0.00 90 1010.5
20260901071226 61 203 4.0 8.0 0.00 0.00 0.00 90 1010.6
20260901070725 61 214 6.0 6.0 0.00 0.00 0.00 90 1010.5
20260901070224 61 250 4.0 4.0 0.00 0.00 0.00 90 1010.5
20260901065222 61 194 0.0 2.0 0.00 0.00 0.00 90 1010.5
20260901064721 61 187 0.0 2.0 0.00 0.00 0.00 90 1010.4
20260901063218 61 212 0.0 2.0 0.00 0.00 0.00 90 1010.4
20260901062216 61 187 1.0 3.0 0.00 0.00 0.00 90 1010.5
20260901060212 61 173 0.0 2.0 0.00 0.00 0.00 90 1010.4
20260901055711 61 203 0.0 2.0 0.00 0.00 0.00 90 1010.5
20260901053707 61 240 0.0 1.0 0.00 0.00 0.00 90 1010.4
20260901053207 61 243 0.0 1.0 0.00 0.00 0.00 90 1010.4
20260901052705 61 229 0.0 3.0 0.00 0.00 0.00 90 1010.5
20260901045158 61 320 0.0 3.0 0.00 0.00 0.00 90 1010.3
20260901043154 61 0 0.0 0.0 0.00 0.00 0.00 90 1010.5
20260901042653 61 273 0.0 2.0 0.00 0.00 0.00 90 1010.5
20260901041651 61 327 0.0 2.0 0.00 0.00 0.00 90 1010.4
20260901041150 61 299 0.0 2.0 0.00 0.00 0.00 90 1010.4
20260901040649 61 317 1.0 2.0 0.00 0.00 0.00 90 1010.4
20260901040148 61 281 1.0 2.0 0.00 0.00 0.00 89 1010.4
20260901035146 62 257 0.0 2.0 0.00 0.00 0.00 89 1010.3
20260901033643 62 316 0.0 3.0 0.00 0.00 0.00 89 1009.9
20260901033142 62 271 0.0 3.0 0.00 0.00 0.00 89 1009.9
20260901032641 62 0 0.0 2.0 0.00 0.00 0.00 89 1009.9
20260901032140 62 247 0.0 2.0 0.00 0.00 0.00 89 1009.9
20260901031639 62 232 1.0 5.0 0.00 0.00 0.00 89 1009.9
20260901031138 62 245 2.0 5.0 0.00 0.00 0.00 89 1009.8
20260901030136 62 218 3.0 4.0 0.00 0.00 0.00 89 1009.8
20260901025635 62 252 2.0 4.0 0.00 0.00 0.00 89 1009.8
20260901024633 62 253 2.0 5.0 0.00 0.00 0.00 89 1009.7
20260901024132 62 259 4.0 5.0 0.00 0.00 0.00 89 1009.7
20260901023633 62 313 1.0 4.0 0.00 0.00 0.00 89 1009.6
20260901022630 62 336 3.0 4.0 0.00 0.00 0.00 89 1009.4
20260901021627 62 340 3.0 6.0 0.00 0.00 0.00 89 1009.5
20260901021126 62 331 4.0 6.0 0.00 0.00 0.00 89 1009.4
20260901020625 62 337 3.0 5.0 0.00 0.00 0.00 88 1009.5
20260901020124 62 1 4.0 6.0 0.00 0.00 0.00 88 1009.4
20260901015624 62 14 4.0 6.0 0.00 0.00 0.00 88 1009.5
20260901014621 63 11 4.0 8.0 0.00 0.00 0.00 88 1009.4
20260901014121 63 345 5.0 8.0 0.00 0.00 0.00 88 1009.4
20260901013118 63 305 5.0 8.0 0.00 0.00 0.00 87 1009.5
20260901012116 63 319 6.0 8.0 0.00 0.00 0.00 87 1009.7
20260901011615 63 350 6.0 8.0 0.00 0.00 0.00 87 1009.7
20260901010613 64 315 4.0 6.0 0.00 0.00 0.00 86 1009.7
20260901010112 64 322 4.0 6.0 0.00 0.00 0.00 86 1009.7
20260901005611 64 312 4.0 6.0 0.00 0.00 0.00 85 1009.8
20260901005110 65 336 4.0 9.0 0.00 0.00 0.00 85 1009.7
20260901004609 65 347 6.0 9.0 0.00 0.00 0.00 85 1009.7
20260901004108 65 347 7.0 9.0 0.00 0.00 0.00 85 1009.6
20260901003106 65 319 5.0 9.0 0.00 0.00 0.00 85 1009.6
20260901002605 65 334 6.0 9.0 0.00 0.00 0.00 85 1009.7
20260901002104 65 0 6.0 9.0 0.00 0.00 0.00 84 1009.5
20260901001102 66 344 5.0 9.0 0.00 0.00 0.00 84 1009.6
20260901000601 66 333 6.0 8.0 0.00 0.00 0.00 83 1009.5
20260901000100 66 326 5.0 8.0 0.00 0.00 0.00 83 1009.6
20260831235559 67 266 6.0 8.0 0.00 0.00 0.00 82 1009.6
20260831234558 67 271 5.0 8.0 0.00 0.00 0.00 82 1009.5
20260831233054 68 247 6.0 7.0 0.00 0.00 0.00 82 1009.5
20260831232554 68 266 6.0 7.0 0.00 0.00 0.00 82 1009.6
20260831231551 67 263 6.0 7.0 0.00 0.00 0.00 82 1009.5
20260831225547 67 280 6.0 7.0 0.00 0.00 0.00 81 1009.5
20260831224546 67 257 6.0 8.0 0.00 0.00 0.00 82 1009.5
20260831224044 68 238 6.0 8.0 0.00 0.00 0.00 82 1009.5
20260831223042 68 243 6.0 7.0 0.00 0.00 0.00 83 1009.5
20260831222040 68 239 6.0 7.0 0.00 0.00 0.00 83 1009.5
20260831221539 68 231 5.0 7.0 0.00 0.00 0.00 83 1009.4
20260831221038 67 238 5.0 7.0 0.00 0.00 0.00 84 1009.4
20260831220537 67 236 6.0 7.0 0.00 0.00 0.00 84 1009.4
20260831220036 67 233 6.0 7.0 0.00 0.00 0.00 84 1009.4
20260831214533 67 217 6.0 8.0 0.00 0.00 0.00 84 1009.5
20260831214032 67 250 6.0 8.0 0.00 0.00 0.00 85 1009.5
20260831213531 66 210 5.0 8.0 0.00 0.00 0.00 85 1009.5
20260831213030 66 211 5.0 7.0 0.00 0.00 0.00 85 1009.6
20260831212529 66 239 5.0 7.0 0.00 0.00 0.00 85 1009.6
20260831211026 66 232 5.0 7.0 0.00 0.00 0.00 85 1009.6
20260831210641 66 233 6.0 8.0 0.00 0.00 0.00 85 1009.6
20260831210525 66 221 5.0 8.0 0.00 0.00 0.00 85 1009.6
20260831210024 66 233 6.0 8.0 0.00 0.00 0.00 85 1009.6
20260831205022 65 239 6.0 8.0 0.00 0.00 0.00 85 1009.6
20260831204521 65 256 6.0 8.0 0.00 0.00 0.00 85 1009.6
20260831204020 65 259 6.0 8.0 0.00 0.00 0.00 85 1009.6
20260831203519 65 238 7.0 9.0 0.00 0.00 0.00 85 1009.6
20260831203018 65 238 7.0 9.0 0.00 0.00 0.00 85 1009.7
20260831202517 65 236 6.0 9.0 0.00 0.00 0.00 85 1009.7
20260831202016 65 242 7.0 8.0 0.00 0.00 0.00 85 1009.8
20260831201515 64 236 7.0 7.0 0.00 0.00 0.00 85 1009.7
20260831201014 64 243 6.0 7.0 0.00 0.00 0.00 85 1009.7
20260831200513 64 280 6.0 8.0 0.00 0.00 0.00 85 1009.7
20260831200012 64 256 6.0 8.0 0.00 0.00 0.00 85 1009.6
20260831195011 64 245 6.0 8.0 0.00 0.00 0.00 86 1009.8
20260831194509 64 236 6.0 8.0 0.00 0.00 0.00 86 1009.7
20260831194008 64 252 6.0 7.0 0.00 0.00 0.00 86 1009.9
20260831193507 63 246 6.0 7.0 0.00 0.00 0.00 86 1009.9
20260831192505 63 264 4.0 5.0 0.00 0.00 0.00 87 1009.8
20260831190501 63 268 6.0 6.0 0.00 0.00 0.00 87 1010.2
20260831190000 63 261 5.0 6.0 0.00 0.00 0.00 87 1010.1
20260831184958 63 280 5.0 5.0 0.00 0.00 0.00 87 1010.1
20260831184457 62 259 5.0 5.0 0.00 0.00 0.00 88 1010.0
20260831183455 62 263 3.0 5.0 0.00 0.00 0.00 88 1010.1
20260831182954 62 277 4.0 5.0 0.00 0.00 0.00 88 1010.1
20260831182338 62 313 4.0 5.0 0.00 0.00 0.00 88 1010.2
20260831180335 61 268 3.0 5.0 0.00 0.00 0.00 89 1010.3
20260831175333 61 284 3.0 4.0 0.00 0.00 0.00 89 1010.2
20260831173830 61 274 4.0 4.0 0.00 0.00 0.00 89 1010.3
20260831173328 61 295 3.0 5.0 0.00 0.00 0.00 89 1010.3
20260831171324 60 320 3.0 5.0 0.00 0.00 0.00 90 1010.3
20260831170823 60 295 3.0 5.0 0.00 0.00 0.00 90 1010.3
20260831170322 60 285 3.0 3.0 0.00 0.00 0.00 90 1010.2
20260831165821 60 298 1.0 3.0 0.00 0.00 0.00 90 1010.2
20260831165320 60 277 2.0 3.0 0.00 0.00 0.00 90 1010.2
20260831164819 60 242 2.0 3.0 0.00 0.00 0.00 91 1010.3
20260831163821 60 263 1.0 3.0 0.00 0.00 0.00 1010.4
20260831163817 60 263 1.0 3.0 0.00 0.00 0.00 91 1010.4
20260831163316 60 247 0.0 3.0 0.00 0.00 0.00 92 1010.4
20260831162815 60 264 2.0 3.0 0.00 0.00 0.00 92 1010.5
20260831161312 59 85 0.0 2.0 0.00 0.00 0.00 92 1010.6
20260831160311 59 133 0.0 4.0 0.00 0.00 0.00 93 1010.7
20260831155809 59 112 1.0 4.0 0.00 0.00 0.00 93 1010.7
20260831155308 59 114 2.0 3.0 0.00 0.00 0.00 93 1010.8
20260831153805 58 0 0.0 3.0 0.00 0.00 0.00 93 1010.8
20260831153305 57 114 0.0 3.0 0.00 0.00 0.00 93 1010.9
20260831152803 57 126 0.0 3.0 0.00 0.00 0.00 93 1010.9
20260831152306 57 124 2.0 5.0 0.00 0.00 0.00 93 1010.9
20260831151301 56 128 2.0 5.0 0.00 0.00 0.00 93 1010.9
20260831150259 56 127 3.0 5.0 0.00 0.00 0.00 93 1010.9
20260831145256 56 130 3.0 5.0 0.00 0.00 0.00 93 1010.8
20260831144755 55 137 3.0 6.0 0.00 0.00 0.00 93 1010.8
20260831144254 55 135 2.0 6.0 0.00 0.00 0.00 93 1010.7
20260831143753 55 128 4.0 6.0 0.00 0.00 0.00 93 1010.7
20260831143252 54 131 3.0 4.0 0.00 0.00 0.00 93 1010.7
20260831141749 54 133 3.0 4.0 0.00 0.00 0.00 93 1010.7
20260831141248 54 133 3.0 4.0 0.00 0.00 0.00 93 1010.7
20260831140747 54 161 2.0 4.0 0.00 0.00 0.00 93 1010.7
20260831140246 54 161 1.0 4.0 0.00 0.00 0.00 93 1010.7
20260831135745 54 161 2.0 4.0 0.00 0.00 0.00 93 1010.6
20260831135244 54 103 2.0 2.0 0.00 0.00 0.00 93 1010.7
20260831134743 54 145 1.0 4.0 0.00 0.00 0.00 93 1010.8
20260831133742 54 138 3.0 4.0 0.00 0.00 0.00 93 1010.8
20260831133241 54 135 2.0 3.0 0.00 0.00 0.00 93 1010.8
20260831132740 54 133 0.0 3.0 0.00 0.00 0.00 93 1010.9
20260831131236 54 134 2.0 4.0 0.00 0.00 0.00 92 1010.9
20260831125733 54 147 1.0 8.0 0.00 0.00 0.00 92 1011.0
20260831124731 54 142 0.0 4.0 0.00 0.00 0.00 92 1011.0
20260831124231 54 135 0.0 4.0 0.00 0.00 0.00 92 1011.0
20260831123228 54 140 2.0 3.0 0.00 0.00 0.00 92 1011.1
20260831122728 55 137 2.0 3.0 0.00 0.00 0.00 92 1011.2
20260831121725 54 162 1.0 3.0 0.00 0.00 0.00 92 1011.3
20260831121225 55 161 2.0 2.0 0.00 0.00 0.00 92 1011.3
20260831120222 54 141 0.0 2.0 0.00 0.00 0.00 92 1011.5
20260831114436 55 140 1.0 2.0 0.00 0.00 0.00 92 1011.5
20260831114218 55 152 1.0 2.0 0.00 0.00 0.00 92 1011.5
20260831113717 55 140 1.0 2.0 0.00 0.00 0.00 92 1011.5
20260831112715 55 135 1.0 2.0 0.00 0.00 0.00 91 1011.6
20260831112214 54 142 0.0 2.0 0.00 0.00 0.00 91 1011.6
20260831111713 55 144 1.0 3.0 0.00 0.00 0.00 91 1011.7
20260831111212 55 155 1.0 3.0 0.00 0.00 0.00 91 1011.7
20260831105709 55 130 1.0 3.0 0.00 0.00 0.00 91 1011.8
20260831105208 55 130 2.0 3.0 0.00 0.00 0.00 91 1011.7
20260831103204 55 142 1.0 3.0 0.00 0.00 0.00 90 1011.8
20260831101701 56 128 1.0 3.0 0.00 0.00 0.00 90 1011.9
20260831100659 56 127 1.0 3.0 0.00 0.00 0.00 90 1011.9
20260831100158 56 128 1.0 3.0 0.00 0.00 0.00 90 1011.9
20260831094655 56 126 2.0 3.0 0.00 0.00 0.00 90 1012.0
20260831094154 56 127 2.0 3.0 0.00 0.00 0.00 90 1012.1
20260831093653 56 127 2.0 2.0 0.00 0.00 0.00 90 1012.2
20260831093152 56 128 1.0 2.0 0.00 0.00 0.00 90 1012.2